sat.trackr.live / text

‹ back to catalog

STARLINK-36745

NORAD 68257 · 2026-054AB

PAYLOAD ACTIVE UNKNOWN

§ Identity

Operator
Country
US
Launch date
2026-03-17
Launch site
AFETR
Launch vehicle
Mass (kg)
RCS (m²)

Purposes: comms

External: N2YO · Heavens-Above · Gunter

§ Orbital elements

Epoch: 2026-09-19T22:40:35.973120Z

Period
93.85 min
Inclination
53.1590°
Eccentricity
0.0001638
Mean motion
15.34409641 rev/d
Perigee alt
461.6 km
Apogee alt
463.8 km
Semi-major
6,840.8 km
B*
5.5750e-4
RAAN
104.5369°
Arg perigee
212.1896°
Mean anomaly
147.9007°
Rev number
2,887

§ Raw data

STARLINK-367451 68257U 26054AB  26262.94486080  .00018512  00000+0  55750-3 0  99932 68257  53.1590 104.5369 0001638 212.1896 147.9007 15.34409641 28878

JSON: /api/v1/satellites/68257 · /tle

For live sub-satellite position, see the globe view (requires WebGL).

§ Visibility from observer

Set your observer location to see the next 7 days of passes ≥ 10°. The values pass through the URL so the page stays shareable.

No JS? Fill the form by hand. The geolocation button needs JavaScript.